Wind_Speed
10 5 1 11 17 21 12 13 12 10 7 3 3 9 10 6 2 14 9 6 5 7 13 12 10 12 12 12 14 16 16 15 14 13 15 16 17 16 15 13 12 15 16 18 18 18 20 21 20
7 4 9 18 22 14 8 14 15 13 10 3 2 1 3 6 6 7 11 14 15 15 17 11 11 13 13 14 15 15 14 15 14 15 17 18 17 16 14 12 11 13 14 16 19 20 19 19 21
7 9 10 23 23 18 15 15 14 12 10 4 2 1 4 8 9 11 13 14 16 19 17 13 12 15 15 15 15 14 14 14 15 16 16 17 18 17 16 14 13 13 12 13 16 19 21 20 22
9 4 17 22 9 7 15 14 14 12 12 7 7 5 7 8 10 12 11 11 13 13 13 13 13 15 16 15 15 15 14 15 16 16 16 17 16 15 13 13 14 15 13 14 15 16 19 21 21
6 14 17 17 3 11 14 17 17 18 18 13 10 7 7 8 9 11 9 10 10 11 11 11 13 15 15 15 15 15 15 15 16 16 16 15 14 13 13 15 14 12 15 16 16 15 16 18 18
6 13 18 10 9 13 18 17 17 15 18 15 11 10 8 10 11 12 10 10 11 11 12 12 12 14 14 14 14 14 15 15 16 15 15 14 13 13 12 12 11 14 13 12 13 14 15 17 15
12 16 17 9 11 12 14 10 17 19 17 14 12 13 10 8 9 13 11 11 12 10 11 12 13 13 13 13 13 14 15 16 15 15 13 12 11 11 11 10 10 10 10 11 12 12 14 13 12
6 8 13 9 7 9 13 14 17 14 16 12 11 14 10 7 7 11 12 10 11 9 10 10 12 13 12 11 11 12 13 14 14 13 11 9 8 7 7 8 8 10 10 9 8 9 10 10 10
20 18 11 16 4 10 10 12 15 16 15 12 11 11 11 8 7 8 9 11 9 10 9 8 10 10 9 9 9 10 12 12 13 11 8 7 7 5 5 8 6 7 8 6 7 6 6 6 9
14 16 13 7 4 7 9 11 7 15 15 11 8 8 9 9 8 5 8 9 8 8 8 8 9 9 9 8 10 11 11 12 12 9 6 5 4 3 2 3 2 5 6 6 5 5 5 9 9
16 9 7 7 8 6 6 11 10 11 0 10 7 4 6 7 8 7 6 9 10 9 8 8 8 9 10 9 10 11 12 12 10 8 6 5 7 7 7 4 4 2 6 6 3 3 2 4 14
10 9 6 5 5 5 6 9 9 8 8 7 5 5 4 6 5 4 6 8 10 10 9 7 8 9 10 11 9 10 11 11 11 10 8 6 5 6 9 10 11 6 6 5 2 0 1 5 12
7 4 6 7 8 10 8 7 6 8 6 6 4 3 3 4 5 5 4 7 11 11 9 8 7 9 11 12 11 11 10 11 11 10 10 9 6 4 4 9 11 10 5 4 1 0 3 2 4
12 7 7 9 7 10 8 7 11 14 12 8 7 4 0 2 3 3 4 5 7 9 9 8 8 9 11 11 13 13 12 15 14 13 12 12 11 13 9 8 8 6 7 6 5 3 5 7 7
4 13 5 6 10 12 10 5 6 9 13 12 7 8 7 3 3 4 5 5 6 8 8 9 10 11 13 14 15 15 17 16 16 15 17 17 17 15 17 13 11 9 9 8 8 7 7 9 9
4 9 7 3 5 9 10 14 7 5 12 9 9 7 8 6 4 5 5 8 8 9 10 10 11 12 14 16 18 18 19 19 19 19 21 20 18 16 16 17 13 13 13 13 12 10 11 12 11
5 3 5 6 4 3 4 15 18 2 10 4 7 7 8 9 8 5 6 8 9 10 12 14 14 15 15 17 20 21 22 22 22 23 23 23 21 19 18 19 18 21 18 15 12 15 16 12 15
7 10 10 14 11 9 5 4 11 18 12 2 6 5 4 5 9 10 9 9 9 12 14 14 16 18 20 20 20 23 24 24 26 27 26 26 25 25 24 23 22 26 20 17 19 16 16 18 17
3 4 16 13 15 9 13 13 8 17 22 14 12 10 7 9 7 9 11 9 11 13 14 15 19 18 19 22 23 24 26 28 28 28 30 27 28 28 27 28 29 27 24 21 21 20 18 20 20
7 9 15 16 12 16 6 9 2 4 17 14 19 14 13 12 8 9 9 14 15 14 17 19 20 21 23 23 24 27 28 29 31 31 30 30 31 31 31 31 33 29 30 28 19 26 24 23 24
8 8 9 6 4 10 8 10 18 1 4 9 15 22 13 17 17 17 15 18 20 17 17 16 19 22 23 25 29 29 30 32 34 35 35 34 35 35 33 32 40 30 20 28 27 31 28 27 25
3 4 4 3 6 17 20 19 23 16 9 14 18 16 22 28 29 24 24 27 30 29 25 17 18 21 22 26 29 31 34 35 36 39 39 34 37 36 37 36 33 38 34 34 33 34 31 32 34
11 16 19 19 9 15 15 14 18 11 5 14 29 30 23 23 33 35 29 36 33 34 44 19 22 29 27 27 29 33 34 37 41 42 39 38 41 40 42 38 38 40 42 39 39 35 33 34 34
10 15 21 13 5 1 8 23 16 17 18 24 23 22 23 23 26 30 33 37 34 33 34 46 28 29 30 31 32 34 38 41 43 37 39 42 45 44 43 42 42 41 42 36 39 38 37 36 35
1 10 15 16 7 10 15 9 9 25 24 18 19 20 22 23 23 24 33 30 32 38 47 26 33 29 32 34 40 37 35 51 49 44 43 43 46 44 43 41 40 41 42 40 43 43 41 41 37
10 16 10 3 6 10 13 8 12 26 25 27 25 29 33 23 27 26 27 35 31 35 37 32 33 36 33 37 34 33 25 38 38 51 39 40 48 43 34 45 37 36 45 46 45 47 45 46 47
4 3 1 0 7 7 0 9 21 26 28 33 35 34 32 35 28 30 29 33 33 42 43 39 39 37 36 37 44 44 57 54 42 35 28 35 39 44 43 39 41 45 42 47 57 47 46 48 45
5 7 5 3 5 8 10 10 11 22 33 41 41 33 32 30 36 28 33 35 37 42 43 41 41 40 35 34 36 32 29 32 28 28 32 20 26 37 38 43 49 39 28 11 14 10 7 11 4
13 11 9 10 12 12 12 8 27 35 38 38 35 36 33 32 35 36 36 38 38 39 46 52 50 42 39 35 31 29 24 23 27 29 31 22 23 22 6 4 6 7 16 11 9 15 11 11 8
19 19 12 12 12 12 17 16 20 30 37 43 47 42 43 38 34 41 40 42 42 40 43 48 50 50 44 38 31 31 23 27 24 30 32 20 17 22 12 7 15 15 13 17 18 19 19 17 15
Wind_Direction
84 88 341 139 73 64 40 42 18 0 352 345 279 247 181 139 193 167 128 158 157 165 153 133 132 118 119 112 113 120 122 115 117 115 110 107 108 108 107 103 105 91 84 85 78 84 87 88 87
106 80 12 48 89 59 49 32 17 11 4 337 264 58 183 113 96 97 115 119 110 120 144 144 133 125 124 120 121 124 122 122 124 123 110 108 110 105 101 102 100 94 89 86 82 82 85 87 86
110 60 78 53 53 19 15 25 19 10 12 19 39 114 110 115 108 114 129 125 122 128 134 148 137 135 129 126 131 129 126 128 126 125 115 113 109 106 101 91 92 93 95 92 88 85 83 88 87
105 56 69 64 83 25 11 18 14 26 41 49 77 78 107 113 116 121 126 132 130 137 149 150 139 138 131 135 141 138 138 137 134 128 123 116 110 106 100 89 101 98 95 109 105 94 88 88 89
113 83 62 85 42 21 14 13 17 37 44 64 78 94 114 125 131 138 143 134 148 150 152 152 142 138 141 144 147 143 145 143 137 134 125 120 112 108 112 105 104 106 104 112 114 109 105 99 97
137 105 98 91 58 25 22 23 29 35 47 59 72 100 106 127 141 151 152 151 158 158 168 158 149 148 148 148 149 145 146 144 144 135 130 124 121 120 122 116 101 112 110 118 121 111 101 93 99
120 96 117 88 36 33 21 39 25 40 53 62 73 110 125 120 138 153 165 167 166 168 171 161 158 158 154 153 151 151 151 150 147 144 141 139 129 129 126 121 117 117 119 115 116 111 98 98 94
224 87 106 82 97 28 22 19 33 39 45 64 69 95 115 138 138 152 164 169 171 176 169 171 162 164 160 152 154 153 153 150 154 156 155 142 139 145 126 128 120 114 122 126 128 117 109 103 113
62 84 141 35 49 49 29 35 40 45 50 57 72 65 83 92 126 156 169 173 173 174 169 174 165 164 160 150 153 154 158 164 170 161 155 154 153 143 123 130 119 120 134 123 120 132 136 123 87
51 61 56 61 111 16 25 35 46 50 55 59 73 74 63 95 106 146 173 170 172 169 165 170 171 165 177 173 161 162 169 181 174 162 167 179 169 154 175 174 173 139 152 147 130 129 129 117 137
82 70 33 21 37 41 32 24 44 59 79 54 71 91 97 97 113 136 168 189 182 175 170 175 180 184 195 192 176 170 176 183 188 189 201 205 195 200 208 201 183 127 164 169 154 123 160 174 257
93 86 63 69 78 70 70 18 48 58 32 44 59 103 121 119 115 138 174 189 195 188 185 190 195 208 206 209 199 188 187 195 207 216 232 235 240 247 245 226 200 184 160 171 160 136 267 319 355
73 11 79 53 55 48 36 86 336 35 30 7 44 82 132 142 136 139 166 188 191 194 195 200 212 218 222 225 212 215 226 229 231 240 248 236 235 230 230 199 201 212 207 181 214 160 315 43 31
56 346 64 48 41 43 38 33 60 39 20 360 348 342 89 193 170 175 172 182 203 208 207 205 215 227 233 235 237 236 231 235 240 243 244 242 241 242 236 207 203 201 214 224 226 212 262 296 306
179 179 179 49 45 18 20 282 74 4 20 8 336 330 327 305 269 232 225 226 218 228 239 232 221 230 235 238 245 244 239 247 256 254 251 247 250 253 242 228 219 221 234 253 265 242 231 279 285
247 269 261 289 154 181 336 296 56 20 359 10 354 320 307 313 303 289 271 254 256 261 255 252 249 241 245 244 245 248 252 254 253 248 248 250 253 255 243 231 243 248 247 247 250 270 263 254 273
325 296 277 339 74 297 340 330 326 313 163 12 341 335 317 303 305 304 291 282 272 263 264 265 262 259 249 247 253 249 251 252 251 252 250 250 255 255 251 252 258 264 262 262 270 247 271 272 272
15 31 3 357 33 3 5 41 308 327 2 350 29 21 325 325 311 302 297 294 291 285 278 270 267 265 263 258 252 252 251 251 254 253 249 252 254 257 259 263 265 266 270 278 271 271 277 281 280
34 350 39 41 39 38 13 26 336 315 297 127 351 354 348 316 304 314 317 318 320 308 292 289 281 272 267 265 261 257 255 251 250 252 254 255 259 260 265 270 272 273 275 269 280 277 272 277 277
271 327 56 32 16 21 342 324 348 229 339 7 317 317 326 313 311 297 307 310 313 317 317 304 292 286 280 271 263 261 260 257 259 260 257 258 259 260 263 270 275 274 276 261 261 272 271 269 276
347 13 55 72 20 279 329 315 360 32 349 303 305 318 314 293 297 272 275 309 302 301 303 301 296 288 280 279 273 267 263 262 262 263 260 261 262 266 267 269 273 257 283 282 277 274 277 279 278
335 345 27 65 323 3 19 346 338 2 40 314 332 312 315 313 307 285 300 296 298 296 288 285 293 288 280 274 274 273 266 264 264 264 266 266 271 268 270 271 271 282 277 271 271 275 277 279 279
60 67 80 83 31 6 22 330 341 354 74 313 324 325 319 302 304 306 302 298 295 303 302 258 306 297 286 278 271 270 272 270 264 265 269 269 265 264 267 269 271 271 274 276 278 278 278 278 279
103 46 7 64 244 67 350 352 326 323 342 334 332 336 336 323 306 296 302 310 297 310 300 294 301 306 287 286 280 277 274 271 267 267 267 266 267 271 267 269 269 272 274 271 273 274 277 279 282
155 34 64 22 342 77 332 353 281 299 326 330 328 331 335 332 327 316 306 318 319 302 308 286 307 295 294 295 285 262 270 273 256 264 260 264 260 265 264 263 266 268 268 270 271 274 277 281 278
75 100 4 317 307 357 316 334 321 308 318 329 340 334 333 342 324 322 315 320 285 290 299 296 302 303 295 290 271 253 295 256 268 268 253 271 285 272 257 254 258 270 269 273 271 270 272 279 278
334 339 6 220 11 318 99 273 305 295 295 309 326 321 318 324 325 317 313 314 309 301 294 296 289 290 293 287 286 290 293 291 282 246 282 275 269 257 259 266 262 268 283 271 270 271 268 271 270
304 331 343 345 299 288 264 323 273 285 293 296 302 309 317 320 314 315 307 306 302 300 295 296 284 285 285 286 290 301 302 302 278 261 283 303 290 274 270 262 267 278 251 278 264 290 322 275 358
315 318 285 287 291 300 311 283 298 283 286 293 308 316 324 319 311 311 305 301 299 287 280 280 279 276 278 279 283 291 299 308 307 305 315 1 343 331 18 356 298 350 352 342 316 295 284 291 313
316 290 291 280 277 270 273 292 289 301 313 310 308 322 320 323 318 307 304 298 297 290 281 272 272 272 270 269 270 283 294 298 299 314 324 333 327 325 314 277 7 349 334 291 258 254 257 262 249
Height
5903 5904 5900 5878 5892 5892 5898 5898 5899 5899 5899 5900 5897 5882 5896 5899 5899 5891 5901 5902 5903 5905 5907 5908 5909 5909 5910 5911 5911 5911 5911 5911 5912 5912 5912 5911 5911 5911 5912 5912 5912 5912 5911 5911 5911 5911 5910 5911 5909
5903 5904 5901 5892 5901 5898 5899 5899 5900 5899 5898 5898 5899 5896 5896 5900 5900 5901 5903 5903 5904 5906 5907 5910 5911 5911 5912 5913 5913 5913 5913 5914 5914 5915 5914 5914 5914 5914 5914 5915 5915 5915 5914 5914 5914 5914 5914 5913 5912
5903 5903 5907 5901 5902 5901 5901 5902 5901 5899 5898 5897 5898 5898 5898 5900 5902 5903 5904 5905 5907 5909 5911 5911 5913 5912 5913 5914 5914 5914 5916 5917 5917 5918 5917 5918 5917 5917 5917 5917 5917 5917 5917 5917 5918 5918 5917 5916 5915
5906 5894 5889 5904 5910 5907 5904 5904 5903 5900 5898 5897 5897 5898 5899 5900 5902 5904 5905 5907 5909 5911 5912 5913 5913 5914 5914 5915 5915 5916 5918 5918 5919 5920 5920 5920 5920 5920 5920 5920 5920 5920 5919 5920 5921 5921 5920 5920 5918
5906 5905 5904 5909 5911 5910 5907 5904 5902 5900 5898 5898 5899 5901 5902 5903 5904 5905 5906 5908 5911 5913 5914 5914 5915 5915 5916 5917 5917 5918 5919 5921 5922 5922 5923 5923 5923 5923 5923 5922 5922 5922 5922 5922 5922 5922 5921 5920 5919
5906 5904 5904 5912 5914 5911 5909 5906 5904 5903 5901 5901 5901 5902 5905 5905 5906 5908 5909 5910 5913 5914 5915 5916 5916 5917 5918 5919 5919 5921 5922 5923 5924 5925 5925 5926 5926 5925 5925 5925 5924 5924 5925 5923 5923 5924 5925 5925 5923
5914 5909 5915 5908 5914 5913 5912 5912 5907 5906 5905 5904 5904 5904 5906 5908 5909 5909 5910 5911 5913 5915 5916 5917 5917 5918 5919 5921 5921 5922 5924 5925 5926 5927 5928 5928 5928 5927 5927 5927 5927 5927 5926 5925 5925 5927 5929 5927 5925
5909 5863 5917 5910 5914 5915 5914 5913 5912 5910 5909 5908 5908 5907 5908 5909 5910 5911 5912 5913 5914 5915 5917 5918 5919 5921 5922 5923 5924 5925 5927 5928 5929 5929 5929 5930 5929 5929 5930 5931 5930 5929 5927 5927 5927 5928 5928 5926 5921
5915 5913 5913 5912 5916 5918 5916 5916 5915 5914 5913 5912 5911 5911 5911 5912 5913 5914 5914 5915 5916 5918 5920 5921 5922 5924 5925 5925 5927 5928 5929 5930 5931 5931 5931 5930 5931 5932 5933 5933 5931 5930 5928 5928 5928 5927 5928 5927 5929
5917 5916 5916 5920 5921 5917 5918 5917 5916 5915 5914 5915 5915 5915 5915 5915 5916 5917 5918 5918 5919 5920 5922 5923 5924 5925 5925 5926 5927 5929 5930 5931 5932 5932 5932 5932 5933 5934 5934 5933 5932 5931 5930 5930 5929 5929 5929 5929 5923
5919 5922 5924 5925 5922 5921 5920 5919 5918 5918 5918 5917 5917 5917 5917 5917 5918 5918 5920 5921 5921 5922 5923 5925 5925 5926 5926 5928 5929 5930 5931 5932 5933 5932 5932 5932 5932 5932 5933 5933 5932 5932 5931 5929 5929 5931 5929 5930 5897
5925 5923 5926 5926 5925 5923 5923 5922 5920 5920 5919 5918 5919 5919 5919 5919 5919 5920 5921 5922 5923 5923 5924 5925 5926 5927 5928 5929 5930 5932 5932 5932 5932 5932 5932 5932 5933 5932 5931 5932 5932 5932 5932 5931 5930 5931 5928 5928 5919
5928 5926 5927 5928 5926 5925 5925 5926 5925 5923 5922 5921 5920 5920 5920 5920 5920 5921 5922 5923 5923 5924 5925 5926 5927 5928 5928 5929 5930 5932 5933 5933 5933 5933 5933 5932 5932 5932 5932 5931 5932 5933 5933 5933 5933 5933 5929 5928 5924
5929 5931 5930 5929 5928 5928 5928 5927 5923 5923 5924 5924 5923 5922 5921 5921 5922 5922 5923 5924 5925 5926 5926 5926 5928 5929 5930 5931 5931 5932 5932 5932 5933 5933 5933 5932 5932 5931 5931 5932 5932 5933 5934 5933 5933 5934 5931 5927 5926
5922 5923 5930 5928 5928 5928 5928 5927 5926 5927 5923 5924 5925 5924 5923 5922 5922 5923 5923 5924 5924 5926 5927 5927 5927 5928 5928 5930 5930 5930 5930 5931 5932 5933 5932 5932 5931 5931 5931 5932 5933 5933 5933 5933 5933 5933 5932 5929 5928
5923 5926 5926 5925 5923 5921 5925 5922 5925 5928 5927 5926 5925 5924 5923 5922 5922 5923 5924 5924 5925 5925 5926 5927 5927 5927 5928 5928 5928 5929 5929 5929 5929 5930 5930 5931 5931 5931 5931 5931 5932 5933 5932 5931 5931 5932 5932 5930 5931
5926 5926 5920 5925 5923 5924 5922 5923 5922 5914 5921 5925 5927 5925 5925 5924 5923 5923 5923 5923 5924 5924 5925 5926 5926 5926 5926 5926 5927 5926 5926 5927 5926 5927 5928 5928 5929 5930 5930 5930 5931 5928 5929 5930 5932 5935 5930 5931 5930
5926 5926 5924 5925 5927 5926 5926 5927 5922 5921 5916 5920 5926 5926 5925 5924 5923 5922 5922 5922 5922 5923 5923 5923 5923 5924 5924 5924 5923 5924 5924 5924 5924 5924 5924 5924 5926 5926 5927 5927 5928 5925 5929 5930 5927 5928 5928 5927 5927
5929 5929 5926 5926 5926 5928 5929 5931 5931 5924 5914 5900 5923 5926 5927 5926 5924 5922 5920 5921 5921 5921 5921 5921 5921 5921 5921 5921 5921 5921 5921 5920 5920 5921 5921 5924 5924 5924 5924 5923 5921 5923 5924 5924 5928 5926 5924 5924 5921
5932 5930 5928 5930 5930 5931 5932 5930 5930 5925 5924 5919 5925 5925 5925 5926 5923 5922 5921 5919 5919 5920 5919 5917 5917 5916 5917 5917 5916 5917 5917 5917 5917 5918 5919 5919 5920 5920 5920 5919 5916 5917 5918 5918 5918 5923 5921 5919 5918
5932 5932 5932 5934 5934 5932 5930 5928 5929 5932 5931 5931 5928 5922 5925 5922 5920 5914 5917 5918 5916 5917 5915 5914 5912 5911 5912 5912 5912 5912 5912 5913 5913 5913 5913 5915 5915 5915 5915 5916 5907 5885 5904 5912 5913 5914 5912 5913 5914
5934 5933 5933 5934 5933 5933 5928 5928 5925 5922 5921 5928 5926 5928 5924 5918 5917 5887 5906 5915 5912 5910 5913 5909 5908 5907 5906 5906 5907 5906 5906 5905 5905 5904 5905 5911 5908 5908 5910 5910 5907 5894 5903 5905 5905 5904 5904 5903 5905
5936 5936 5934 5932 5934 5934 5934 5930 5928 5926 5928 5928 5925 5922 5921 5922 5913 5908 5913 5909 5906 5904 5896 5892 5903 5905 5901 5900 5900 5899 5899 5899 5896 5896 5898 5899 5899 5900 5899 5902 5901 5901 5895 5895 5893 5893 5895 5897 5898
5933 5931 5933 5932 5930 5931 5934 5935 5930 5926 5927 5927 5924 5921 5918 5917 5916 5912 5906 5903 5885 5891 5895 5892 5901 5898 5896 5894 5893 5893 5891 5889 5886 5891 5889 5888 5889 5891 5891 5892 5891 5891 5889 5891 5889 5889 5890 5892 5891
5934 5936 5937 5936 5937 5932 5938 5939 5932 5927 5926 5925 5923 5920 5917 5915 5913 5911 5900 5901 5896 5890 5884 5882 5888 5894 5891 5891 5881 5870 5877 5875 5871 5876 5877 5877 5877 5879 5879 5879 5880 5881 5880 5881 5881 5881 5882 5881 5882
5935 5936 5939 5936 5939 5941 5941 5938 5934 5927 5922 5920 5919 5914 5909 5912 5908 5906 5902 5892 5896 5885 5888 5881 5880 5884 5888 5886 5879 5863 5852 5867 5863 5866 5866 5867 5866 5866 5864 5862 5870 5868 5870 5871 5870 5870 5871 5871 5871
5935 5934 5935 5936 5941 5943 5944 5939 5932 5929 5924 5917 5915 5912 5910 5904 5905 5901 5899 5895 5890 5879 5880 5879 5880 5880 5879 5879 5874 5868 5865 5863 5864 5850 5858 5858 5857 5856 5857 5858 5860 5862 5863 5858 5860 5858 5859 5859 5859
5935 5935 5935 5936 5939 5939 5939 5938 5933 5925 5920 5917 5914 5910 5906 5903 5896 5898 5893 5890 5886 5878 5873 5873 5874 5872 5871 5870 5868 5864 5862 5859 5857 5854 5852 5848 5852 5850 5849 5851 5853 5855 5855 5850 5851 5851 5851 5851 5851
5934 5933 5934 5936 5936 5935 5935 5939 5927 5922 5919 5913 5908 5902 5901 5898 5893 5889 5886 5882 5880 5874 5868 5862 5863 5865 5863 5863 5861 5860 5857 5853 5853 5847 5845 5846 5849 5850 5841 5845 5847 5847 5849 5847 5848 5849 5848 5847 5847
5932 5930 5930 5929 5930 5930 5929 5930 5925 5918 5908 5902 5898 5894 5890 5891 5887 5879 5876 5872 5868 5865 5860 5857 5856 5856 5854 5855 5856 5853 5850 5849 5846 5842 5844 5844 5847 5843 5841 5841 5843 5844 5845 5844 5845 5842 5843 5843 5844